#timestamp,LO_Frequency,Hit,StdDev 
1570860015.8,286047000.9,N
1570860035.6,286047000.6,N
1570860055.5,286046998.5,N
1570860075.3,286046998.2,N
1570860095.1,286047000.6,N
1570860115.9,286047000.4,N
1570860135.7,286046998.2,N
1570860155.5,286047000.0,N
1570860175.4,286047000.9,N
1570860195.2,286047002.5,N
1570860215.1,286046998.1,N
1570860216.0,286046998.1,N
1570860235.8,286047000.1,N
1570860255.6,286047001.6,N
1570860275.5,286047001.9,N
1570860295.3,286047002.2,N
1570860315.2,286047000.0,N
1570860335.9,286046998.7,N
1570860355.7,286046998.3,N
1570860375.6,286046998.6,N
1570860395.4,286047001.9,N
1570860415.2,286047000.1,N
1570860435.1,286046998.4,N
1570860436.0,286046998.4,N
1570860455.8,286046999.3,N
1570860475.4,286046999.3,N
1570860495.3,286046999.3,N
1570860515.1,286046999.6,N
1570860535.9,286046998.7,N
1570860555.7,286046999.5,N
1570860575.5,286046999.0,N
1570860595.4,286046999.1,N
1570860615.2,286047001.0,N
1570860635.0,286047002.7,N
1570860635.9,286047002.7,N
1570860655.8,286046999.9,N
1570860675.6,286047001.9,N
1570860695.5,286047002.6,N
1570860715.3,286047004.0,N
1570860735.1,286047002.0,N
1570860755.9,286047002.6,N
1570860775.7,286047000.6,N
1570860795.6,286047002.8,N
1570860815.4,286047000.2,N
1570860835.2,286047000.7,N
1570860855.1,286046998.3,N
1570860856.0,286046998.3,N
1570860875.8,286046998.4,N
1570860895.8,286046999.1,N
1570860915.6,286046999.2,N
1570860935.5,286046996.5,N
1570860955.3,286046997.7,N
1570860975.2,286046995.2,N
1570860995.9,286046997.8,N
1570861015.7,286046999.5,N
1570861035.6,286046999.1,N
1570861055.4,286047001.2,N
1570861075.2,286047000.5,N
1570861095.1,286047002.3,N
1570861096.0,286047002.3,N
1570861115.8,286047000.0,N
1570861135.7,286047000.4,N
1570861155.5,286047000.3,N
1570861175.3,286047004.4,N
1570861195.2,286047004.1,N
1570861215.0,286047001.4,N
1570861215.9,286047001.4,N
1570861235.8,286047002.7,N
1570861255.6,286047001.6,N
1570861275.6,286047002.2,N
1570861295.5,286047001.9,N
1570861315.3,286047001.6,N
1570861335.1,286047002.2,N
1570861355.9,286047000.1,N
1570861375.7,286047000.1,N
1570861395.6,286047002.6,N
1570861415.4,286047001.7,N
1570861435.2,286047001.3,N
1570861455.1,286047004.0,N
1570861456.0,286047004.0,N
1570861475.8,286047001.5,N
1570861495.6,286046999.8,N
1570861515.5,286047004.3,N
1570861535.3,286047001.3,N
1570861555.2,286047002.4,N
1570861575.0,286047001.9,N
1570861595.5,286047003.1,N
1570861615.3,286047005.4,Y
1570861635.2,286047003.1,P
1570861655.9,286047001.4,N
1570861675.7,286047001.6,N
1570861695.6,286047003.4,Y
1570861715.4,286047002.2,P
1570861735.3,286047000.0,N
1570861755.3,286047002.7,N
1570861775.1,286047002.3,N
1570861776.0,286047002.3,N
1570861795.8,286047002.6,N
1570861815.7,286047001.0,N
1570861835.5,286046998.6,N
1570861855.3,286046998.4,N
1570861875.2,286047002.8,N
1570861895.0,286046999.7,N
1570861895.9,286046999.7,N
1570861915.8,286047000.7,N
1570861935.6,286047000.6,N
1570861955.5,286047000.8,N
1570861975.3,286047001.1,N
1570861995.1,286046998.9,N
1570862015.9,286046998.5,N
1570862035.7,286046999.4,N
1570862055.5,286046996.9,N
1570862075.4,286046996.9,N
1570862095.2,286046996.9,N
1570862115.1,286046998.3,N
1570862116.0,286046998.3,N
1570862135.8,286046998.2,N
1570862155.6,286047000.9,N
1570862175.5,286047000.0,N
1570862195.3,286047002.4,N
1570862215.2,286047000.3,N
1570862235.9,286047000.6,N
1570862255.7,286047000.6,N
1570862275.6,286047000.6,N
1570862295.4,286047000.5,N
1570862315.2,286047000.3,N
1570862335.1,286046998.5,N
1570862336.0,286046998.5,N
1570862355.8,286046998.4,N
1570862375.7,286046998.8,N
1570862395.5,286046998.9,N
1570862415.3,286046998.7,N
1570862435.2,286046996.7,N
1570862455.0,286046999.2,N
1570862455.9,286046999.2,N
1570862475.8,286046997.3,N
1570862495.6,286046996.6,N
1570862515.4,286046997.8,N
1570862535.3,286046995.6,Y
1570862555.1,286046995.0,P
1570862575.8,286046997.8,N
1570862595.7,286046996.8,N
1570862615.5,286046999.6,N
1570862635.4,286046996.9,N
1570862655.2,286046994.9,Y
1570862675.4,286046998.7,P
1570862695.2,286046998.6,N
1570862715.0,286046998.2,P
1570862716.0,286046998.2,Y
1570862735.8,286047002.8,P
1570862755.6,286047000.2,N
1570862775.5,286047002.7,N
1570862795.3,286047001.4,N
1570862815.1,286047002.6,N
1570862835.9,286047002.0,N
1570862855.7,286046999.9,N
1570862875.6,286047002.4,N
1570862895.4,286046999.7,N
1570862915.2,286047002.4,N
1570862935.1,286047002.8,N
1570862936.0,286047002.8,N
1570862955.8,286047000.0,N
1570862975.6,286046998.3,N
1570862995.5,286046998.6,N
1570863015.3,286047000.0,N
1570863035.2,286046999.8,N
1570863055.9,286047001.1,N
1570863075.7,286047000.8,N
1570863095.2,286047000.3,N
1570863115.1,286046999.9,N
1570863116.0,286046999.9,N
1570863135.8,286047000.9,N
1570863155.7,286047000.5,N
1570863175.5,286047002.7,N
1570863195.3,286047001.7,N
1570863215.2,286046999.9,N
1570863235.0,286047001.2,N
1570863235.9,286047001.2,N
1570863255.7,286047000.7,N
1570863275.6,286047000.8,N
1570863295.4,286047000.6,N
1570863315.3,286047000.7,N
1570863335.1,286047000.1,N
1570863355.8,286046998.3,N
1570863375.7,286047001.2,N
1570863395.5,286047000.7,N
1570863415.5,286047000.3,N
1570863435.3,286046999.7,N
1570863455.2,286047001.1,N
1570863475.0,286046996.6,Y
1570863475.9,286046996.6,P
1570863495.8,286046999.2,N
1570863515.6,286046998.4,N
1570863535.4,286047001.0,N
1570863555.3,286047000.9,N
1570863575.1,286047002.7,N
1570863595.9,286047000.7,N
